date,time,SUV Intensity [MED/Hr],UV Index,Daily total [MED],Since Last [MED]
17/08/2023,00:00:12,0.000,0.0,0.0,0.0
17/08/2023,00:01:12,-0.001,0.0,0.0,0.0
17/08/2023,00:02:11,0.000,0.0,0.0,0.0
17/08/2023,00:03:12,0.000,0.0,0.0,0.0
17/08/2023,00:04:12,0.000,0.0,0.0,0.0
17/08/2023,00:05:12,0.000,0.0,0.0,0.0
17/08/2023,00:06:11,0.000,0.0,0.0,0.0
17/08/2023,00:07:12,0.000,0.0,0.0,0.0
17/08/2023,00:08:12,0.001,0.0,0.0,0.0
17/08/2023,00:09:12,0.000,0.0,0.0,0.0
17/08/2023,00:10:11,0.000,0.0,0.0,0.0
17/08/2023,00:11:12,0.000,0.0,0.0,0.0
17/08/2023,00:12:11,0.000,0.0,0.0,0.0
17/08/2023,00:13:12,0.000,0.0,0.0,0.0
17/08/2023,00:14:12,0.000,0.0,0.0,0.0
17/08/2023,00:15:12,0.000,0.0,0.0,0.0
17/08/2023,00:16:12,0.000,0.0,0.0,0.0
17/08/2023,00:17:12,0.000,0.0,0.0,0.0
17/08/2023,00:18:11,0.000,0.0,0.0,0.0
17/08/2023,00:19:12,0.000,0.0,0.0,0.0
17/08/2023,00:20:11,0.000,0.0,0.0,0.0
17/08/2023,00:21:11,0.000,0.0,0.0,0.0
17/08/2023,00:22:12,0.000,0.0,0.0,0.0
17/08/2023,00:23:12,0.000,0.0,0.0,0.0
17/08/2023,00:24:11,0.000,0.0,0.0,0.0
17/08/2023,00:25:11,0.000,0.0,0.0,0.0
17/08/2023,00:26:11,0.000,0.0,0.0,0.0
17/08/2023,00:27:13,0.000,0.0,0.0,0.0
17/08/2023,00:28:13,0.000,0.0,0.0,0.0
17/08/2023,00:29:12,0.000,0.0,0.0,0.0
17/08/2023,00:30:11,0.000,0.0,0.0,0.0
17/08/2023,00:31:12,0.001,0.0,0.0,0.0
17/08/2023,00:32:12,0.000,0.0,0.0,0.0
17/08/2023,00:33:11,0.000,0.0,0.0,0.0
17/08/2023,00:34:11,0.000,0.0,0.0,0.0
17/08/2023,00:35:12,0.000,0.0,0.0,0.0
17/08/2023,00:36:12,0.000,0.0,0.0,0.0
17/08/2023,00:37:11,0.000,0.0,0.0,0.0
17/08/2023,00:38:11,0.000,0.0,0.0,0.0
17/08/2023,00:39:11,0.000,0.0,0.0,0.0
17/08/2023,00:40:12,0.000,0.0,0.0,0.0
17/08/2023,00:41:12,0.000,0.0,0.0,0.0
17/08/2023,00:42:12,0.000,0.0,0.0,0.0
17/08/2023,00:43:12,0.000,0.0,0.0,0.0
17/08/2023,00:44:12,0.000,0.0,0.0,0.0
17/08/2023,00:45:11,-0.000,0.0,0.0,0.0
17/08/2023,00:46:12,0.000,0.0,0.0,0.0
17/08/2023,00:47:12,0.000,0.0,0.0,0.0
17/08/2023,00:48:11,0.000,0.0,0.0,0.0
17/08/2023,00:49:12,0.000,0.0,0.0,0.0
17/08/2023,00:50:11,0.000,0.0,0.0,0.0
17/08/2023,00:51:12,0.000,0.0,0.0,0.0
17/08/2023,00:52:11,0.000,0.0,0.0,0.0
17/08/2023,00:53:12,0.000,0.0,0.0,0.0
17/08/2023,00:54:12,-0.001,0.0,0.0,0.0
17/08/2023,00:55:11,0.000,0.0,0.0,0.0
17/08/2023,00:56:11,0.000,0.0,0.0,0.0
17/08/2023,00:57:11,0.000,0.0,0.0,0.0
17/08/2023,00:58:12,0.000,0.0,0.0,0.0
17/08/2023,00:59:12,0.001,0.0,0.0,0.0
17/08/2023,01:00:12,0.000,0.0,0.0,0.0
17/08/2023,01:01:12,0.001,0.0,0.0,0.0
17/08/2023,01:02:12,0.000,0.0,0.0,0.0
17/08/2023,01:03:11,0.000,0.0,0.0,0.0
17/08/2023,01:04:12,0.000,0.0,0.0,0.0
17/08/2023,01:05:11,0.001,0.0,0.0,0.0
17/08/2023,01:06:11,0.001,0.0,0.0,0.0
17/08/2023,01:07:11,0.001,0.0,0.0,0.0
17/08/2023,01:08:12,0.001,0.0,0.0,0.0
17/08/2023,01:09:12,0.001,0.0,0.0,0.0
17/08/2023,01:10:12,0.001,0.0,0.0,0.0
17/08/2023,01:11:11,0.000,0.0,0.0,0.0
17/08/2023,01:12:12,0.001,0.0,0.0,0.0
17/08/2023,01:13:11,0.001,0.0,0.0,0.0
17/08/2023,01:14:12,0.001,0.0,0.0,0.0
17/08/2023,01:15:12,0.000,0.0,0.0,0.0
17/08/2023,01:16:12,0.001,0.0,0.0,0.0
17/08/2023,01:17:12,0.001,0.0,0.0,0.0
17/08/2023,01:18:12,0.000,0.0,0.0,0.0
17/08/2023,01:19:12,0.000,0.0,0.0,0.0
17/08/2023,01:20:12,0.001,0.0,0.0,0.0
17/08/2023,01:21:11,0.000,0.0,0.0,0.0
17/08/2023,01:22:12,0.001,0.0,0.0,0.0
17/08/2023,01:23:12,0.001,0.0,0.0,0.0
17/08/2023,01:24:12,0.002,0.0,0.0,0.0
17/08/2023,01:25:11,0.001,0.0,0.0,0.0
17/08/2023,01:26:12,0.001,0.0,0.0,0.0
17/08/2023,01:27:11,0.001,0.0,0.0,0.0
17/08/2023,01:28:12,0.001,0.0,0.0,0.0
17/08/2023,01:29:11,0.001,0.0,0.0,0.0
17/08/2023,01:30:12,0.001,0.0,0.0,0.0
17/08/2023,01:31:12,0.001,0.0,0.0,0.0
17/08/2023,01:32:12,0.001,0.0,0.0,0.0
17/08/2023,01:33:11,0.000,0.0,0.0,0.0
17/08/2023,01:34:12,0.001,0.0,0.0,0.0
17/08/2023,01:35:11,0.002,0.0,0.0,0.0
17/08/2023,01:36:12,0.001,0.0,0.0,0.0
17/08/2023,01:37:11,0.000,0.0,0.0,0.0
17/08/2023,01:38:12,0.001,0.0,0.0,0.0
17/08/2023,01:39:11,0.002,0.0,0.0,0.0
17/08/2023,01:40:12,0.001,0.0,0.0,0.0
17/08/2023,01:41:11,0.001,0.0,0.0,0.0
17/08/2023,01:42:12,0.000,0.0,0.0,0.0
17/08/2023,01:43:10,0.001,0.0,0.0,0.0
17/08/2023,01:44:09,0.002,0.0,0.0,0.0
17/08/2023,01:45:12,0.001,0.0,0.0,0.0
17/08/2023,01:46:12,0.002,0.0,0.0,0.0
17/08/2023,01:47:12,0.000,0.0,0.0,0.0
17/08/2023,01:48:11,0.001,0.0,0.0,0.0
17/08/2023,01:49:12,0.000,0.0,0.0,0.0
17/08/2023,01:50:12,0.001,0.0,0.0,0.0
17/08/2023,01:51:12,0.001,0.0,0.0,0.0
17/08/2023,01:52:13,0.002,0.0,0.0,0.0
17/08/2023,01:53:12,0.002,0.0,0.0,0.0
17/08/2023,01:54:12,0.001,0.0,0.0,0.0
17/08/2023,01:55:11,0.001,0.0,0.0,0.0
17/08/2023,01:56:11,0.001,0.0,0.0,0.0
17/08/2023,01:57:12,0.002,0.0,0.0,0.0
17/08/2023,01:58:12,0.002,0.0,0.0,0.0
17/08/2023,01:59:12,0.001,0.0,0.0,0.0
17/08/2023,02:00:12,0.002,0.0,0.0,0.0
17/08/2023,02:01:12,0.001,0.0,0.0,0.0
17/08/2023,02:02:11,0.001,0.0,0.0,0.0
17/08/2023,02:03:12,0.001,0.0,0.0,0.0
17/08/2023,02:04:12,0.001,0.0,0.0,0.0
17/08/2023,02:05:11,0.001,0.0,0.0,0.0
17/08/2023,02:06:12,0.001,0.0,0.0,0.0
17/08/2023,02:07:12,0.000,0.0,0.0,0.0
17/08/2023,02:08:12,0.002,0.0,0.0,0.0
17/08/2023,02:09:12,0.001,0.0,0.0,0.0
17/08/2023,02:10:11,0.002,0.0,0.0,0.0
17/08/2023,02:11:12,0.001,0.0,0.0,0.0
17/08/2023,02:12:12,0.001,0.0,0.0,0.0
17/08/2023,02:13:11,0.001,0.0,0.0,0.0
17/08/2023,02:14:12,0.001,0.0,0.0,0.0
17/08/2023,02:15:10,0.001,0.0,0.0,0.0
17/08/2023,02:16:10,0.001,0.0,0.0,0.0
17/08/2023,02:17:11,0.001,0.0,0.0,0.0
17/08/2023,02:18:12,0.001,0.0,0.0,0.0
17/08/2023,02:19:12,0.001,0.0,0.0,0.0
17/08/2023,02:20:11,0.000,0.0,0.0,0.0
17/08/2023,02:21:12,0.000,0.0,0.0,0.0
17/08/2023,02:22:12,0.001,0.0,0.0,0.0
17/08/2023,02:23:10,0.001,0.0,0.0,0.0
17/08/2023,02:24:09,0.001,0.0,0.0,0.0
17/08/2023,02:25:12,0.001,0.0,0.0,0.0
17/08/2023,02:26:12,0.001,0.0,0.0,0.0
17/08/2023,02:27:12,0.001,0.0,0.0,0.0
17/08/2023,02:28:12,0.000,0.0,0.0,0.0
17/08/2023,02:29:12,0.000,0.0,0.0,0.0
17/08/2023,02:30:12,0.001,0.0,0.0,0.0
17/08/2023,02:31:12,0.001,0.0,0.0,0.0
17/08/2023,02:32:12,0.001,0.0,0.0,0.0
17/08/2023,02:33:12,0.001,0.0,0.0,0.0
17/08/2023,02:34:12,0.000,0.0,0.0,0.0
17/08/2023,02:35:12,0.002,0.0,0.0,0.0
17/08/2023,02:36:12,0.001,0.0,0.0,0.0
17/08/2023,02:37:11,0.001,0.0,0.0,0.0
17/08/2023,02:38:11,0.000,0.0,0.0,0.0
17/08/2023,02:39:12,0.000,0.0,0.0,0.0
17/08/2023,02:40:12,-0.000,0.0,0.0,0.0
17/08/2023,02:41:12,0.001,0.0,0.0,0.0
17/08/2023,02:42:11,0.001,0.0,0.0,0.0
17/08/2023,02:43:12,0.001,0.0,0.0,0.0
17/08/2023,02:44:12,0.001,0.0,0.0,0.0
17/08/2023,02:45:11,0.001,0.0,0.0,0.0
17/08/2023,02:46:12,0.001,0.0,0.0,0.0
17/08/2023,02:47:12,0.002,0.0,0.0,0.0
17/08/2023,02:48:12,0.001,0.0,0.0,0.0
17/08/2023,02:49:12,0.001,0.0,0.0,0.0
17/08/2023,02:50:11,0.001,0.0,0.0,0.0
17/08/2023,02:51:12,0.001,0.0,0.0,0.0
17/08/2023,02:52:12,0.001,0.0,0.0,0.0
17/08/2023,02:53:12,0.001,0.0,0.0,0.0
17/08/2023,02:54:11,0.000,0.0,0.0,0.0
17/08/2023,02:55:11,0.001,0.0,0.0,0.0
17/08/2023,02:56:11,0.000,0.0,0.0,0.0
17/08/2023,02:57:12,0.001,0.0,0.0,0.0
17/08/2023,02:58:12,0.001,0.0,0.0,0.0
17/08/2023,02:59:12,0.001,0.0,0.0,0.0
17/08/2023,03:00:12,0.001,0.0,0.0,0.0
17/08/2023,03:01:12,0.001,0.0,0.0,0.0
17/08/2023,03:02:12,0.001,0.0,0.0,0.0
17/08/2023,03:03:12,0.002,0.0,0.0,0.0
17/08/2023,03:04:12,0.000,0.0,0.0,0.0
17/08/2023,03:05:12,0.001,0.0,0.0,0.0
17/08/2023,03:06:11,0.000,0.0,0.0,0.0
17/08/2023,03:07:12,0.000,0.0,0.0,0.0
17/08/2023,03:08:11,0.000,0.0,0.0,0.0
17/08/2023,03:09:10,0.001,0.0,0.0,0.0
17/08/2023,03:10:12,0.001,0.0,0.0,0.0
17/08/2023,03:11:12,0.001,0.0,0.0,0.0
17/08/2023,03:12:12,0.000,0.0,0.0,0.0
17/08/2023,03:13:12,0.000,0.0,0.0,0.0
17/08/2023,03:14:12,0.001,0.0,0.0,0.0
17/08/2023,03:15:12,0.000,0.0,0.0,0.0
17/08/2023,03:16:11,0.002,0.0,0.0,0.0
17/08/2023,03:17:12,0.001,0.0,0.0,0.0
17/08/2023,03:18:10,0.001,0.0,0.0,0.0
17/08/2023,03:19:10,0.002,0.0,0.0,0.0
17/08/2023,03:20:12,0.001,0.0,0.0,0.0
17/08/2023,03:21:12,0.000,0.0,0.0,0.0
17/08/2023,03:22:12,0.002,0.0,0.0,0.0
17/08/2023,03:23:12,0.000,0.0,0.0,0.0
17/08/2023,03:24:12,0.001,0.0,0.0,0.0
17/08/2023,03:25:12,0.001,0.0,0.0,0.0
17/08/2023,03:26:12,0.000,0.0,0.0,0.0
17/08/2023,03:27:12,0.002,0.0,0.0,0.0
17/08/2023,03:28:12,0.000,0.0,0.0,0.0
17/08/2023,03:29:12,0.001,0.0,0.0,0.0
17/08/2023,03:30:12,0.001,0.0,0.0,0.0
17/08/2023,03:31:10,0.001,0.0,0.0,0.0
17/08/2023,03:32:10,0.001,0.0,0.0,0.0
17/08/2023,03:33:12,0.001,0.0,0.0,0.0
17/08/2023,03:34:12,0.001,0.0,0.0,0.0
17/08/2023,03:35:12,0.000,0.0,0.0,0.0
17/08/2023,03:36:12,0.001,0.0,0.0,0.0
17/08/2023,03:37:12,0.001,0.0,0.0,0.0
17/08/2023,03:38:12,0.001,0.0,0.0,0.0
17/08/2023,03:39:12,0.001,0.0,0.0,0.0
17/08/2023,03:40:12,0.001,0.0,0.0,0.0
17/08/2023,03:41:12,0.002,0.0,0.0,0.0
17/08/2023,03:42:12,0.002,0.0,0.0,0.0
17/08/2023,03:43:11,0.001,0.0,0.0,0.0
17/08/2023,03:44:12,0.001,0.0,0.0,0.0
17/08/2023,03:45:12,0.001,0.0,0.0,0.0
17/08/2023,03:46:12,0.002,0.0,0.0,0.0
17/08/2023,03:47:12,0.001,0.0,0.0,0.0
17/08/2023,03:48:12,0.001,0.0,0.0,0.0
17/08/2023,03:49:12,0.002,0.0,0.0,0.0
17/08/2023,03:50:12,0.001,0.0,0.0,0.0
17/08/2023,03:51:12,0.001,0.0,0.0,0.0
17/08/2023,03:52:12,0.001,0.0,0.0,0.0
17/08/2023,03:53:12,0.001,0.0,0.0,0.0
17/08/2023,03:54:12,0.001,0.0,0.0,0.0
17/08/2023,03:55:12,0.001,0.0,0.0,0.0
17/08/2023,03:56:12,0.001,0.0,0.0,0.0
17/08/2023,03:57:13,0.002,0.0,0.0,0.0
17/08/2023,03:58:12,0.002,0.0,0.0,0.0
17/08/2023,03:59:12,0.001,0.0,0.0,0.0
17/08/2023,04:00:12,0.001,0.0,0.0,0.0
17/08/2023,04:01:12,0.001,0.0,0.0,0.0
17/08/2023,04:02:12,0.002,0.0,0.0,0.0
17/08/2023,04:03:12,0.000,0.0,0.0,0.0
17/08/2023,04:04:12,0.002,0.0,0.0,0.0
17/08/2023,04:05:12,0.002,0.0,0.0,0.0
17/08/2023,04:06:12,0.001,0.0,0.0,0.0
17/08/2023,04:07:12,0.001,0.0,0.0,0.0
17/08/2023,04:08:10,0.000,0.0,0.0,0.0
17/08/2023,04:09:10,0.001,0.0,0.0,0.0
17/08/2023,04:10:12,0.001,0.0,0.0,0.0
17/08/2023,04:11:12,0.001,0.0,0.0,0.0
17/08/2023,04:12:12,0.002,0.0,0.0,0.0
17/08/2023,04:13:12,0.000,0.0,0.0,0.0
17/08/2023,04:14:12,0.001,0.0,0.0,0.0
17/08/2023,04:15:12,0.001,0.0,0.0,0.0
17/08/2023,04:16:12,0.001,0.0,0.0,0.0
17/08/2023,04:17:12,0.002,0.0,0.0,0.0
17/08/2023,04:18:12,0.001,0.0,0.0,0.0
17/08/2023,04:19:12,0.001,0.0,0.0,0.0
17/08/2023,04:20:12,0.001,0.0,0.0,0.0
17/08/2023,04:21:11,0.001,0.0,0.0,0.0
17/08/2023,04:22:12,0.001,0.0,0.0,0.0
17/08/2023,04:23:12,0.000,0.0,0.0,0.0
17/08/2023,04:24:12,0.001,0.0,0.0,0.0
17/08/2023,04:25:10,0.001,0.0,0.0,0.0
17/08/2023,04:26:12,0.000,0.0,0.0,0.0
17/08/2023,04:27:12,0.001,0.0,0.0,0.0
17/08/2023,04:28:12,0.000,0.0,0.0,0.0
17/08/2023,04:29:12,0.001,0.0,0.0,0.0
17/08/2023,04:30:12,0.002,0.0,0.0,0.0
17/08/2023,04:31:12,0.001,0.0,0.0,0.0
17/08/2023,04:32:12,0.001,0.0,0.0,0.0
17/08/2023,04:33:12,0.001,0.0,0.0,0.0
17/08/2023,04:34:12,0.001,0.0,0.0,0.0
17/08/2023,04:35:12,0.001,0.0,0.0,0.0
17/08/2023,04:36:12,0.001,0.0,0.0,0.0
17/08/2023,04:37:12,0.002,0.0,0.0,0.0
17/08/2023,04:38:12,0.001,0.0,0.0,0.0
17/08/2023,04:39:13,0.001,0.0,0.0,0.0
17/08/2023,04:40:10,0.002,0.0,0.0,0.0
17/08/2023,04:41:10,0.002,0.0,0.0,0.0
17/08/2023,04:42:12,0.002,0.0,0.0,0.0
17/08/2023,04:43:12,0.002,0.0,0.0,0.0
17/08/2023,04:44:10,0.002,0.0,0.0,0.0
17/08/2023,04:45:10,0.002,0.0,0.0,0.0
17/08/2023,04:46:12,0.002,0.0,0.0,0.0
17/08/2023,04:47:12,0.002,0.0,0.0,0.0
17/08/2023,04:48:12,0.003,0.0,0.0,0.0
17/08/2023,04:49:12,0.002,0.0,0.0,0.0
17/08/2023,04:50:12,0.003,0.0,0.0,0.0
17/08/2023,04:51:12,0.003,0.0,0.0,0.0
17/08/2023,04:52:12,0.003,0.0,0.0,0.0
17/08/2023,04:53:12,0.002,0.0,0.0,0.0
17/08/2023,04:54:12,0.002,0.0,0.0,0.0
17/08/2023,04:55:12,0.003,0.0,0.0,0.0
17/08/2023,04:56:12,0.004,0.0,0.0,0.0
17/08/2023,04:57:10,0.004,0.0,0.0,0.0
17/08/2023,04:58:10,0.004,0.0,0.0,0.0
17/08/2023,04:59:12,0.004,0.0,0.0,0.0
17/08/2023,05:00:12,0.004,0.0,0.0,0.0
17/08/2023,05:01:12,0.005,0.0,0.0,0.0
17/08/2023,05:02:12,0.004,0.0,0.0,0.0
17/08/2023,05:03:12,0.004,0.0,0.0,0.0
17/08/2023,05:04:10,0.005,0.0,0.0,0.0
17/08/2023,05:05:10,0.006,0.0,0.0,0.0
17/08/2023,05:06:12,0.006,0.0,0.0,0.0
17/08/2023,05:07:12,0.007,0.0,0.0,0.0
17/08/2023,05:08:12,0.008,0.0,0.0,0.0
17/08/2023,05:09:12,0.007,0.0,0.0,0.0
17/08/2023,05:10:12,0.006,0.0,0.001,0.001
17/08/2023,05:11:12,0.007,0.0,0.001,0.0
17/08/2023,05:12:12,0.008,0.0,0.001,0.0
17/08/2023,05:13:13,0.009,0.0,0.001,0.0
17/08/2023,05:14:13,0.010,0.0,0.001,0.0
17/08/2023,05:15:10,0.009,0.0,0.001,0.0
17/08/2023,05:16:10,0.009,0.0,0.001,0.0
17/08/2023,05:17:12,0.010,0.0,0.002,0.001
17/08/2023,05:18:12,0.010,0.0,0.002,0.0
17/08/2023,05:19:12,0.011,0.0,0.002,0.0
17/08/2023,05:20:12,0.011,0.0,0.002,0.0
17/08/2023,05:21:12,0.012,0.0,0.002,0.0
17/08/2023,05:22:12,0.013,0.0,0.003,0.001
17/08/2023,05:23:12,0.013,0.0,0.003,0.0
17/08/2023,05:24:12,0.014,0.0,0.003,0.0
17/08/2023,05:25:12,0.014,0.0,0.003,0.0
17/08/2023,05:26:12,0.014,0.0,0.003,0.0
17/08/2023,05:27:12,0.015,0.0,0.004,0.001
17/08/2023,05:28:12,0.015,0.0,0.004,0.0
17/08/2023,05:29:12,0.016,0.0,0.004,0.0
17/08/2023,05:30:12,0.017,0.0,0.004,0.0
17/08/2023,05:31:12,0.016,0.0,0.005,0.001
17/08/2023,05:32:12,0.019,0.0,0.005,0.0
17/08/2023,05:33:13,0.018,0.0,0.005,0.0
17/08/2023,05:34:12,0.019,0.0,0.006,0.001
17/08/2023,05:35:12,0.020,0.0,0.006,0.0
17/08/2023,05:36:12,0.021,0.0,0.006,0.0
17/08/2023,05:37:12,0.021,0.0,0.007,0.001
17/08/2023,05:38:13,0.022,0.0,0.007,0.0
17/08/2023,05:39:12,0.023,0.0,0.007,0.0
17/08/2023,05:40:12,0.024,0.0,0.008,0.001
17/08/2023,05:41:12,0.025,0.0,0.008,0.0
17/08/2023,05:42:12,0.025,0.0,0.009,0.001
17/08/2023,05:43:12,0.026,0.0,0.009,0.0
17/08/2023,05:44:12,0.026,0.0,0.009,0.0
17/08/2023,05:45:12,0.027,0.0,0.01,0.001
17/08/2023,05:46:12,0.027,0.0,0.01,0.0
17/08/2023,05:47:12,0.030,0.0,0.011,0.001
17/08/2023,05:48:12,0.030,0.0,0.011,0.0
17/08/2023,05:49:12,0.031,0.0,0.012,0.001
17/08/2023,05:50:12,0.033,0.0,0.012,0.0
17/08/2023,05:51:12,0.033,0.0,0.013,0.001
17/08/2023,05:52:12,0.034,0.0,0.013,0.0
17/08/2023,05:53:12,0.035,0.0,0.014,0.001
17/08/2023,05:54:12,0.037,0.0,0.015,0.001
17/08/2023,05:55:12,0.037,0.0,0.015,0.0
17/08/2023,05:56:13,0.039,0.0,0.016,0.001
17/08/2023,05:57:12,0.039,0.0,0.017,0.001
17/08/2023,05:58:13,0.040,0.0,0.017,0.0
17/08/2023,05:59:12,0.042,0.0,0.018,0.001
17/08/2023,06:00:12,0.043,0.0,0.019,0.001
17/08/2023,06:01:12,0.044,0.0,0.019,0.0
17/08/2023,06:02:12,0.045,0.0,0.02,0.001
17/08/2023,06:03:10,0.047,0.0,0.021,0.001
17/08/2023,06:04:11,0.048,0.0,0.022,0.001
17/08/2023,06:05:12,0.049,0.0,0.022,0.0
17/08/2023,06:06:12,0.050,0.0,0.023,0.001
17/08/2023,06:07:12,0.052,0.0,0.024,0.001
17/08/2023,06:08:13,0.053,0.0,0.025,0.001
17/08/2023,06:09:12,0.055,0.0,0.026,0.001
17/08/2023,06:10:12,0.056,0.0,0.027,0.001
17/08/2023,06:11:10,0.057,0.0,0.028,0.001
17/08/2023,06:12:10,0.060,0.0,0.029,0.001
17/08/2023,06:13:12,0.061,0.0,0.03,0.001
17/08/2023,06:14:12,0.063,0.0,0.031,0.001
17/08/2023,06:15:12,0.063,0.0,0.032,0.001
17/08/2023,06:16:10,0.066,0.0,0.033,0.001
17/08/2023,06:17:10,0.067,0.0,0.034,0.001
17/08/2023,06:18:12,0.070,0.0,0.035,0.001
17/08/2023,06:19:12,0.071,0.0,0.036,0.001
17/08/2023,06:20:11,0.073,0.0,0.038,0.002
17/08/2023,06:21:10,0.073,0.0,0.039,0.001
17/08/2023,06:22:12,0.078,0.0,0.04,0.001
17/08/2023,06:23:13,0.079,0.0,0.041,0.001
17/08/2023,06:24:12,0.081,0.0,0.043,0.002
17/08/2023,06:25:12,0.083,0.0,0.044,0.001
17/08/2023,06:26:12,0.085,0.0,0.045,0.001
17/08/2023,06:27:10,0.087,0.0,0.047,0.002
17/08/2023,06:28:10,0.089,0.0,0.048,0.001
17/08/2023,06:29:12,0.092,0.0,0.05,0.002
17/08/2023,06:30:10,0.093,0.0,0.051,0.001
17/08/2023,06:31:10,0.094,0.0,0.053,0.002
17/08/2023,06:32:13,0.096,0.0,0.055,0.002
17/08/2023,06:33:10,0.097,0.0,0.056,0.001
17/08/2023,06:34:11,0.100,0.0,0.058,0.002
17/08/2023,06:35:12,0.102,0.0,0.059,0.001
17/08/2023,06:36:12,0.105,0.0,0.061,0.002
17/08/2023,06:37:13,0.108,0.0,0.063,0.002
17/08/2023,06:38:10,0.110,0.0,0.065,0.002
17/08/2023,06:39:11,0.112,0.0,0.067,0.002
17/08/2023,06:40:12,0.114,0.0,0.069,0.002
17/08/2023,06:41:12,0.116,0.0,0.07,0.001
17/08/2023,06:42:13,0.119,0.0,0.072,0.002
17/08/2023,06:43:12,0.122,0.0,0.074,0.002
17/08/2023,06:44:12,0.120,0.0,0.076,0.002
17/08/2023,06:45:12,0.126,0.0,0.079,0.003
17/08/2023,06:46:10,0.129,0.0,0.081,0.002
17/08/2023,06:47:10,0.129,0.0,0.083,0.002
17/08/2023,06:48:13,0.130,0.0,0.085,0.002
17/08/2023,06:49:12,0.130,0.0,0.087,0.002
17/08/2023,06:50:12,0.138,0.0,0.089,0.002
17/08/2023,06:51:12,0.140,0.0,0.092,0.003
17/08/2023,06:52:12,0.137,0.0,0.094,0.002
17/08/2023,06:53:12,0.146,0.0,0.096,0.002
17/08/2023,06:54:12,0.148,0.0,0.099,0.003
17/08/2023,06:55:12,0.150,0.0,0.101,0.002
17/08/2023,06:56:13,0.154,0.0,0.104,0.003
17/08/2023,06:57:12,0.160,0.0,0.107,0.003
17/08/2023,06:58:12,0.162,0.0,0.109,0.002
17/08/2023,06:59:12,0.162,0.0,0.112,0.003
17/08/2023,07:00:12,0.171,0.0,0.115,0.003
17/08/2023,07:01:13,0.173,0.0,0.118,0.003
17/08/2023,07:02:12,0.164,0.0,0.12,0.002
17/08/2023,07:03:13,0.160,0.0,0.123,0.003
17/08/2023,07:04:10,0.158,0.0,0.126,0.003
17/08/2023,07:05:11,0.163,0.0,0.128,0.002
17/08/2023,07:06:13,0.164,0.0,0.131,0.003
17/08/2023,07:07:12,0.170,0.0,0.134,0.003
17/08/2023,07:08:12,0.163,0.0,0.137,0.003
17/08/2023,07:09:10,0.170,0.0,0.139,0.002
17/08/2023,07:10:10,0.166,0.0,0.142,0.003
17/08/2023,07:11:12,0.168,0.0,0.145,0.003
17/08/2023,07:12:13,0.171,0.0,0.148,0.003
17/08/2023,07:13:10,0.172,0.0,0.151,0.003
17/08/2023,07:14:10,0.182,0.0,0.154,0.003
17/08/2023,07:15:12,0.183,0.0,0.157,0.003
17/08/2023,07:16:12,0.191,0.0,0.16,0.003
17/08/2023,07:17:12,0.189,0.0,0.163,0.003
17/08/2023,07:18:12,0.185,0.0,0.166,0.003
17/08/2023,07:19:12,0.181,0.0,0.169,0.003
17/08/2023,07:20:11,0.177,0.0,0.172,0.003
17/08/2023,07:21:10,0.183,0.0,0.175,0.003
17/08/2023,07:22:12,0.189,0.0,0.178,0.003
17/08/2023,07:23:13,0.198,0.0,0.181,0.003
17/08/2023,07:24:12,0.227,1.0,0.185,0.004
17/08/2023,07:25:12,0.217,0.0,0.189,0.004
17/08/2023,07:26:12,0.217,1.0,0.192,0.003
17/08/2023,07:27:12,0.217,0.0,0.196,0.004
17/08/2023,07:28:12,0.214,0.0,0.199,0.003
17/08/2023,07:29:13,0.240,1.0,0.203,0.004
17/08/2023,07:30:12,0.224,1.0,0.207,0.004
17/08/2023,07:31:13,0.228,1.0,0.211,0.004
17/08/2023,07:32:12,0.229,1.0,0.215,0.004
17/08/2023,07:33:12,0.238,1.0,0.218,0.003
17/08/2023,07:34:12,0.250,1.0,0.222,0.004
17/08/2023,07:35:12,0.259,1.0,0.227,0.005
17/08/2023,07:36:12,0.262,1.0,0.231,0.004
17/08/2023,07:37:12,0.262,1.0,0.236,0.005
17/08/2023,07:38:13,0.270,1.0,0.24,0.004
17/08/2023,07:39:12,0.282,1.0,0.245,0.005
17/08/2023,07:40:13,0.307,1.0,0.25,0.005
17/08/2023,07:41:12,0.284,1.0,0.255,0.005
17/08/2023,07:42:13,0.275,1.0,0.259,0.004
17/08/2023,07:43:12,0.293,1.0,0.264,0.005
17/08/2023,07:44:12,0.294,1.0,0.269,0.005
17/08/2023,07:45:12,0.285,1.0,0.274,0.005
17/08/2023,07:46:11,0.296,1.0,0.279,0.005
17/08/2023,07:47:10,0.361,1.0,0.284,0.005
17/08/2023,07:48:12,0.320,1.0,0.29,0.006
17/08/2023,07:49:12,0.358,1.0,0.295,0.005
17/08/2023,07:50:13,0.345,1.0,0.301,0.006
17/08/2023,07:51:13,0.334,1.0,0.307,0.006
17/08/2023,07:52:13,0.326,1.0,0.312,0.005
17/08/2023,07:53:13,0.325,1.0,0.317,0.005
17/08/2023,07:54:12,0.319,1.0,0.323,0.006
17/08/2023,07:55:12,0.325,1.0,0.328,0.005
17/08/2023,07:56:12,0.322,1.0,0.334,0.006
17/08/2023,07:57:12,0.346,1.0,0.339,0.005
17/08/2023,07:58:13,0.345,1.0,0.345,0.006
17/08/2023,07:59:12,0.338,1.0,0.351,0.006
17/08/2023,08:00:12,0.345,1.0,0.356,0.005
17/08/2023,08:01:13,0.353,1.0,0.362,0.006
17/08/2023,08:02:13,0.359,1.0,0.368,0.006
17/08/2023,08:03:12,0.348,1.0,0.374,0.006
17/08/2023,08:04:12,0.365,1.0,0.38,0.006
17/08/2023,08:05:12,0.468,1.0,0.387,0.007
17/08/2023,08:06:13,0.475,1.0,0.394,0.007
17/08/2023,08:07:12,0.467,1.0,0.402,0.008
17/08/2023,08:08:12,0.507,1.0,0.41,0.008
17/08/2023,08:09:12,0.444,1.0,0.418,0.008
17/08/2023,08:10:10,0.450,1.0,0.425,0.007
17/08/2023,08:11:11,0.519,1.0,0.434,0.009
17/08/2023,08:12:12,0.523,1.0,0.442,0.008
17/08/2023,08:13:12,0.528,1.0,0.451,0.009
17/08/2023,08:14:13,0.465,1.0,0.459,0.008
17/08/2023,08:15:12,0.513,1.0,0.467,0.008
17/08/2023,08:16:12,0.560,1.0,0.476,0.009
17/08/2023,08:17:12,0.478,1.0,0.485,0.009
17/08/2023,08:18:12,0.543,1.0,0.494,0.009
17/08/2023,08:19:13,0.565,1.0,0.503,0.009
17/08/2023,08:20:12,0.579,1.0,0.513,0.01
17/08/2023,08:21:12,0.581,1.0,0.522,0.009
17/08/2023,08:22:13,0.593,1.0,0.532,0.01
17/08/2023,08:23:12,0.598,1.0,0.542,0.01
17/08/2023,08:24:12,0.604,1.0,0.552,0.01
17/08/2023,08:25:12,0.611,1.0,0.562,0.01
17/08/2023,08:26:13,0.590,1.0,0.572,0.01
17/08/2023,08:27:12,0.618,1.0,0.582,0.01
17/08/2023,08:28:13,0.634,1.0,0.593,0.011
17/08/2023,08:29:12,0.640,1.0,0.603,0.01
17/08/2023,08:30:12,0.568,1.0,0.613,0.01
17/08/2023,08:31:13,0.654,2.0,0.623,0.01
17/08/2023,08:32:12,0.657,2.0,0.634,0.011
17/08/2023,08:33:13,0.571,1.0,0.645,0.011
17/08/2023,08:34:14,0.669,2.0,0.656,0.011
17/08/2023,08:35:14,0.681,2.0,0.667,0.011
17/08/2023,08:36:12,0.687,2.0,0.678,0.011
17/08/2023,08:37:13,0.690,2.0,0.689,0.011
17/08/2023,08:38:12,0.702,2.0,0.701,0.012
17/08/2023,08:39:14,0.703,2.0,0.713,0.012
17/08/2023,08:40:12,0.713,2.0,0.725,0.012
17/08/2023,08:41:13,0.724,2.0,0.737,0.012
17/08/2023,08:42:13,0.724,2.0,0.749,0.012
17/08/2023,08:43:12,0.727,2.0,0.761,0.012
17/08/2023,08:44:13,0.733,2.0,0.773,0.012
17/08/2023,08:45:12,0.742,2.0,0.785,0.012
17/08/2023,08:46:12,0.750,2.0,0.797,0.012
17/08/2023,08:47:13,0.760,2.0,0.81,0.013
17/08/2023,08:48:12,0.762,2.0,0.823,0.013
17/08/2023,08:49:12,0.766,2.0,0.836,0.013
17/08/2023,08:50:12,0.774,2.0,0.848,0.012
17/08/2023,08:51:12,0.777,2.0,0.861,0.013
17/08/2023,08:52:13,0.791,2.0,0.874,0.013
17/08/2023,08:53:12,0.800,2.0,0.888,0.014
17/08/2023,08:54:12,0.806,2.0,0.901,0.013
17/08/2023,08:55:11,0.817,2.0,0.914,0.013
17/08/2023,08:56:10,0.818,2.0,0.928,0.014
17/08/2023,08:57:12,0.830,2.0,0.942,0.014
17/08/2023,08:58:11,0.844,2.0,0.955,0.013
17/08/2023,08:59:10,0.846,2.0,0.969,0.014
17/08/2023,09:00:13,0.851,2.0,0.984,0.015
17/08/2023,09:01:13,0.823,2.0,0.998,0.014
17/08/2023,09:02:12,0.872,2.0,1.012,0.014
17/08/2023,09:03:12,0.876,2.0,1.027,0.015
17/08/2023,09:04:12,0.884,2.0,1.041,0.014
17/08/2023,09:05:12,0.886,2.0,1.056,0.015
17/08/2023,09:06:12,0.890,2.0,1.071,0.015
17/08/2023,09:07:12,0.896,2.0,1.086,0.015
17/08/2023,09:08:12,0.898,2.0,1.101,0.015
17/08/2023,09:09:13,0.908,2.0,1.116,0.015
17/08/2023,09:10:12,0.920,2.0,1.131,0.015
17/08/2023,09:11:12,0.919,2.0,1.146,0.015
17/08/2023,09:12:11,0.855,2.0,1.161,0.015
17/08/2023,09:13:10,0.789,2.0,1.176,0.015
17/08/2023,09:14:12,0.940,2.0,1.192,0.016
17/08/2023,09:15:13,0.949,2.0,1.208,0.016
17/08/2023,09:16:13,0.959,2.0,1.224,0.016
17/08/2023,09:17:12,0.953,2.0,1.24,0.016
17/08/2023,09:18:12,0.976,2.0,1.256,0.016
17/08/2023,09:19:13,0.885,2.0,1.272,0.016
17/08/2023,09:20:12,1.013,2.0,1.288,0.016
17/08/2023,09:21:13,1.007,2.0,1.305,0.017
17/08/2023,09:22:12,1.019,2.0,1.321,0.016
17/08/2023,09:23:13,1.030,2.0,1.339,0.018
17/08/2023,09:24:10,1.054,2.0,1.355,0.016
17/08/2023,09:25:10,1.042,2.0,1.373,0.018
17/08/2023,09:26:12,1.078,2.0,1.391,0.018
17/08/2023,09:27:11,1.087,2.0,1.408,0.017
17/08/2023,09:28:10,1.086,2.0,1.426,0.018
17/08/2023,09:29:13,1.077,2.0,1.445,0.019
17/08/2023,09:30:12,1.082,2.0,1.463,0.018
17/08/2023,09:31:13,1.098,3.0,1.481,0.018
17/08/2023,09:32:13,1.109,3.0,1.499,0.018
17/08/2023,09:33:12,1.117,3.0,1.518,0.019
17/08/2023,09:34:13,1.124,3.0,1.536,0.018
17/08/2023,09:35:13,1.127,3.0,1.555,0.019
17/08/2023,09:36:12,1.140,3.0,1.574,0.019
17/08/2023,09:37:13,1.150,3.0,1.593,0.019
17/08/2023,09:38:12,1.153,3.0,1.612,0.019
17/08/2023,09:39:12,1.092,3.0,1.631,0.019
17/08/2023,09:40:13,1.127,3.0,1.649,0.018
17/08/2023,09:41:12,1.170,3.0,1.668,0.019
17/08/2023,09:42:12,0.958,2.0,1.688,0.02
17/08/2023,09:43:12,0.899,2.0,1.704,0.016
17/08/2023,09:44:13,0.848,2.0,1.721,0.017
17/08/2023,09:45:13,0.769,2.0,1.734,0.013
17/08/2023,09:46:13,0.745,2.0,1.747,0.013
17/08/2023,09:47:13,0.847,2.0,1.761,0.014
17/08/2023,09:48:12,0.837,2.0,1.775,0.014
17/08/2023,09:49:13,0.871,2.0,1.79,0.015
17/08/2023,09:50:10,0.862,2.0,1.804,0.014
17/08/2023,09:51:11,0.833,2.0,1.818,0.014
17/08/2023,09:52:13,0.802,2.0,1.832,0.014
17/08/2023,09:53:13,0.776,2.0,1.845,0.013
17/08/2023,09:54:13,0.748,2.0,1.858,0.013
17/08/2023,09:55:12,0.769,2.0,1.87,0.012
17/08/2023,09:56:13,0.780,2.0,1.884,0.014
17/08/2023,09:57:12,0.924,2.0,1.898,0.014
17/08/2023,09:58:13,1.292,3.0,1.916,0.018
17/08/2023,09:59:12,0.871,2.0,1.933,0.017
17/08/2023,10:00:12,0.801,2.0,1.947,0.014